Regional Weather Roundup
Issued by NWS Wakefield, VA

Home | Current Version | Previous Version | Text Only | Print | Product List | Glossary Off
Versions: 1 2 3 4 5 6 7 8 9 10 11 12 13 14 15 16 17 18 19 20 21 22 23 24 25 26 27 28 29 30 31 32 33 34 35 36 37 38 39 40 41 42 43 44 45 46 47 48 49 50

000
ASUS41 KAKQ 061715
RWRAKQ

REGIONAL WEATHER ROUNDUP
NATIONAL WEATHER SERVICE WAKEFIELD VA
100 PM EDT WED MAY 06 2015

Note: "fair" indicates few or no clouds below 12,000 feet with no
significant weather and/or obstructions to visibility. * = Denotes
station may not report precipitation (e.g., rain,snow,etc.),
thunder or fog.

VAZ042-051-052>054-056-061800-
NORTHERN VIRGINIA

CITY           SKY/WX    TMP DP  RH WIND       PRES   REMARKS
WASH NATIONAL  MOSUNNY   81  64  56 E5        30.20F
DULLES         MOSUNNY   81  63  54 NE6       30.19F
FORT BELVOIR   SUNNY     79  67  67 SE9       30.19F
QUANTICO       MOSUNNY   71  64  78 SW7       30.21F
FREDERICKSBRG* SUNNY     79  63  56 N5        30.19F
STAFFORD*      SUNNY     77  62  61 E9        30.24F
WARRENTON      SUNNY     82  68  61 NE3       30.19F
CULPEPER*      SUNNY     79  65  61 E5        30.19F
MANASSAS*      SUNNY     81  64  57 SE3       30.19F
LEESBURG*      PTSUNNY   81  64  57 NE3       30.21F
WINCHESTER     SUNNY     81  55  41 E3        30.21F
FRONT ROYAL*   FAIR      79  63  57 N6        30.19F
LURAY*         FAIR      84  61  45 CALM      30.19F
$$

VAZ048-049-060>072-079>083-061800-
CENTRAL AND SOUTH CENTRAL VIRGINIA

CITY           SKY/WX    TMP DP  RH WIND       PRES   REMARKS
RICHMOND       CLOUDY    81  59  47 SW5       30.20F
CHESTERFIELD*  FAIR      79  55  44 SE5       30.21F
PETERSBURG*    MOSUNNY   82  56  40 SE3       30.20F
HANOVER        MOSUNNY   78  61  55 VRB3      30.21F
TAPPAHANNOCK*  SUNNY     78  56  46 CALM      30.21F
QUINTON*       PTSUNNY   78  59  52 CALM      30.20F
CHARLOTTSVILLE MOSUNNY   81  63  54 VRB3      30.19F
GORDONSVILLE*  FAIR      78  65  63 SE3       30.19F
ORANGE*        SUNNY     79  64  61 NE7       30.21F
LOUISA*        MOSUNNY   81  64  57 E7        30.20F
BUMPASS*       FAIR      77  65  67 E3        30.20F
FARMVILLE*     CLOUDY    80  62  54 CALM      30.19F
CREWE*         PTSUNNY   80  60  50 SE7       30.20F
FORT PICKETT*  FAIR      79  60  51 S8        30.21F
CHASE CITY*    FAIR      80  63  55 CALM      30.20F
CLARKSVILLE*   FAIR      79  61  53 SE3       30.20F
SOUTH HILL*    MOSUNNY   78  58  51 CALM      30.26F
LAWRENCEVILLE* FAIR      80  58  46 E5        30.20F
EMPORIA*       MOSUNNY   79  55  44 S3        30.22F
$$

VAZ088>098-061800-
SOUTHEAST VIRGINIA

CITY           SKY/WX    TMP DP  RH WIND       PRES   REMARKS
NORFOLK        PTSUNNY   79  53  40 SW7       30.21F
VIRGINIA BEACH PTSUNNY   81  59  47 SE10      30.21F
NORFOLK NAVAL  PTSUNNY   81  59  47 NE12      30.23F
WEST POINT*    MOSUNNY   83  54  37 SE8       30.22F
SALUDA*        FAIR      76  61  59 E6        30.20F
NEWPORT NEWS   MOSUNNY   82  56  40 SW6       30.22F
LANGLEY AFB    MOSUNNY   78  57  49 S7        30.21F
FORT EUSTIS    MOSUNNY   78  56  47 VRB5      30.20F
WILLIAMSBURG*  MOSUNNY   82  61  47 SE8       30.22F
HR EXEC AP*    FAIR      81  55  41 S7        30.23F
FRANKLIN*      MOSUNNY   79  56  46 S5        30.21F
WAKEFIELD      MOSUNNY   80  57  45 CALM      30.21F
$$

VAZ020-022-025-037-045-061800-
WEST CENTRAL AND SOUTHWEST VIRGINIA

CITY           SKY/WX    TMP DP  RH WIND       PRES   REMARKS
STAUNTON*      MOSUNNY   81  55  40 CALM      30.23F
WAYNESBORO*    FAIR      79  58  48 N6        30.22F
HOT SPRINGS VA CLOUDY    72  48  42 SE9       30.31F
LYNCHBURG      SUNNY     81  58  45 CALM      30.21F
DANVILLE       SUNNY     82  59  45 CALM      30.20F
SOUTH BOSTON*  FAIR      80  59  47 CALM      30.20F
MARTINSVILLE   MOSUNNY   83  56  39 SE7       30.22F
ROANOKE        MOSUNNY   79  56  45 CALM      30.23F
BLACKSBURG     MOSUNNY   78  56  46 SE5       30.28F
DUBLIN*        MOSUNNY   79  56  45 E5        30.26F
MARION*        MOSUNNY   79  53  40 SE7       30.28F
HILLSVILLE*    CLOUDY    73  54  50 CALM      30.27F
RICHLANDS*     FAIR      76  53  43 E3        30.26F
WISE*          CLOUDY    75  48  38 NE7       30.28F
ABINGDON*      SUNNY     80  55  41 N3        30.24F
$$

MDZ021>025-VAZ099-100-061800-
SOUTHERN MARYLAND AND THE DELMARVA PENINSULA

CITY           SKY/WX    TMP DP  RH WIND       PRES   REMARKS
PATUXENT RIVER MOSUNNY   70  59  68 E8        30.21F
BAY BRIDGE APT   N/A    N/A N/A N/A W6        30.22F
LEONARDTOWN    MOSUNNY   73  59  60 CALM      30.22F
DOVER          SUNNY     73  59  60 E15       30.21S
GEORGETOWN     SUNNY     72  53  51 E16G28    30.24R
EASTON         MOSUNNY   81  64  57 CALM      30.24F
CAMBRIDGE      SUNNY     79  61  53 CALM      30.20F
SALISBURY      MOSUNNY   79  58  48 VRB3      30.20F
OCEAN CITY     MOSUNNY   70  57  63 S7        30.22F
WALLOPS ISLAND CLOUDY    74  60  61 S10       30.22F
ACCOMACK*      PTSUNNY   79  61  53 S7        30.21F
$$

NCZ012>017-030>032-061800-
NORTH CENTRAL AND EASTERN NORTH CAROLINA

CITY           SKY/WX    TMP DP  RH WIND       PRES   REMARKS
ROANOKE RAPIDS FAIR      77  57  50 CALM      30.21F
RALEIGH        PTSUNNY   79  57  46 E6        30.22F
ELIZABETH CITY PTSUNNY   74  57  55 E7        30.23F
AHOSKIE*       MOSUNNY   76  55  47 SE7       30.22F
EDENTON*       PTSUNNY   75  57  53 S5        30.23F
CURRITUCK*     PTSUNNY   77  48  36 SE5       30.23F
KILL DEVIL HLS PTSUNNY   72  55  54 SE8       30.23F
MANTEO         PTSUNNY   71  58  64 SW7       30.24F
CAPE HATTERAS  CLOUDY    73  56  54 SE7       30.23F
TARBORO*       FAIR      79  52  39 CALM      30.22F
GOLDSBORO      PTSUNNY   76  54  46 E9        30.19F
WASHINGTON     PTSUNNY   74  53  48 SE5       30.22F
GREENVILLE     PTSUNNY   77  52  41 SE9       30.22F
NEW BERN       CLOUDY    75  54  47 E8        30.22F
WILMINGTON     CLOUDY    75  56  51 E12       30.19F
$$

VAZ048-061800-
ELSEWHERE

CITY           SKY/WX    TMP DP  RH WIND       PRES   REMARKS
HARRISBURG PA  PTSUNNY   69  55  60 SE5       30.25F
BALTIMORE      MOSUNNY   77  61  57 E9        30.21F
ANNAPOLIS      SUNNY     69  62  78 SE8       30.21F
ANDREWS AFB    MOSUNNY   76  66  69 E9        30.20F
PHILADELPHIA   PTSUNNY   72  46  39 E8        30.26F
HENDERSON NC   MOSUNNY   79  55  43 SE5       30.21F
GREENSBORO     PTSUNNY   80  56  43 CALM      30.21F
ROCKY MOUNT    PTSUNNY   78  54  43 SE3       30.21F
$$

VAZ100-061800-
MARINE

STATION/POSITION TIME  TEMP    WIND        PRES    WAVE   SWELL
                       AIR SEA DIR/SP/G            HT/PER HT/PER
                 (UTC) (F)     (DEG/KT/KT) (MB)    (FT/S) (FT/S)
BRANDYWINE LGT   1600   64 56  100/ 14/ 15 1024.1F
CAPE MAY NJ      1600   67 62   50/ 15/ 20 1023.9F
LEWES DE         1600   61 60   80/ 22/ 27 1024.3R
15NM E FENWICK I 1650   58 55              1023.8R   2/11
OCEAN-CITY-INLET 1600   58 52  210/  9/ 11 1023.5F
WACHAPREAGUE VA  1600   70 67  180/  8/ 10 1023.8F
THOMAS POINT MD  1700   65 60  200/  6/  7 1023.7F
GOOSES REEF MD   1700   65 64                N/A     1/ 2
COVE POINT MD    1600   63     180/  9/  9 1024.3F
SOLOMONS ISLAND  1600      61                N/A
BISHOPS HEAD MD  1600   66 72  150/  7/  8 1023.4F
PINEY POINT MD   1600          120/  3/  3   N/A
CAMBRIDGE MD     1600   70 64  350/  2/  4 1023.2F
LEWISETTA VA     1600   68 66              1023.1F
RAPPAHANNOCK LGT 1600          170/ 11/ 12 1024.3F
YORK RVR RNG VA  1600   67     110/  5/  5 1023.2F
YORKTOWN VA      1600   75 62   70/  2/  2 1023.4F
JAMESTOWN VA     1700   74 69  140/  6/  8 1022.0F
DOMINION TERM VA 1600   71     130/  1/  2 1023.9F
KIPTOPEKE VA     1600      67  170/  4/  4   N/A
CHES BAY BRIDGE  1600   65 60   80/  8/  9 1023.5F
CAPE HENRY VA    1600   69     130/ 11/ 13 1022.8F
CHESAPEAKE LGHT  1600   63     170/ 13/ 13 1025.0F
WILLOUBY STN VA  1600   68     310/  2/  3 1024.5F
S CRANEY ISL VA  1600          220/  1/  3 1023.7F
CAPE HENRY BUOY  1628      63                N/A     2/11
1ST LANDING BUOY 1700      62                N/A
CAPE CHARLES BUO 1626      59                N/A     1/12   2/12
OFFSHORE WE BUOY 1611      62                N/A     2/ 5   2/11
64NM E OF VA BCH 1650   64 60  170/  2/  2 1023.9F   2/ 8   2/ 8
DUCK PIER NC     1600   70 53  100/  2/  3 1023.6F
44056 DUCK FRF   1611      61                N/A     2/11
OREGON INLET NC  1600   71 70   90/  6/  9 1024.4F
HATTERAS NC      1600   71 67   90/  6/  8 1023.7F
DIAMOND SHLS NC  1650   71 74  100/ 12/ 14 1023.6F   3/ 6   3/ 6
CAPE LOOKOUT NC  1700   69      40/ 13/ 14 1022.7F
$$


USA.gov is the U.S. government's official web portal to all federal, state and local government web resources and services.